OBJECT B, 44487

Orbit data source: Space-Track

You're viewing an Uncataloged Satellite

Recently launched and/or uncataloged satellites may have evolving metadata. Metadata may include but not limited to: Owner, Maufacturer, Bus, Motor, and Mission.

OBJECT B, 44487 is a satellite owned by Guodian Gaokeji (CN) in SSO that was launched on Sat, 17 Aug 2019 UTC via a JIELONG-1 launch vehicle from the Jiuquan Satellite Launch Center, China (JSC). Unknown objects in Earth's orbit typically refer to objects detected orbiting the Earth but have not yet been identified or cataloged. These objects could be anything from previously untracked satellites, spent rocket stages, debris from satellite collisions, or even natural meteoroids temporarily captured by Earth's gravity.

Loading next visibility...
OBJECT B details
Identifier
44487, 2019-052B
Orbit
SSO
Last TLE update6 hours ago
Origin
Flag of CNGuodian Gaokeji (CN / PRC)
ManufacturerGUOG?
MissionCommercial Communications
Bus & MotorCUBESAT 6U?, Unknown motor
Mass8 kg wet, 8 kg dry
Launch date (UTC)
2019-08-17 (5 years ago)
Launch vehicle
JIELONG-1
Launch site
Jiuquan Satellite Launch Center, China (JSC)
Object typeUnknown
Shape & HBRBox, 0.3 m
Radar Cross Section0.105 m², Medium (>0.1 m² and < 1m²)

Expand to show TLE details & history

TLE from 6 hours ago
0 OBJECT B
1 44487U 19052B   24361.17259341  .00167108  00000-0  16986-2 0  9997
2 44487  97.3902  76.4989 0007573 304.0874  55.9666 15.64605626296555
Epoch: 2024-12-26T04:08Z
Definitive object data (Epoch: 2024-12-26T04:08:32.07Z)
Latitude-0.00004°
Longitude-80.79052°
Altitude374.664 km
Speed7.686 km/s
True Right ascension05h 05m 59s
True Declination0° 00' 00"
Sunlit
Object was in full shadow at TLE epoch
Visualization TLE readout
Latitude-15.59775°
Longitude-78.46195°
Altitude376.743 km
Speed7.685 km/s
Apparent Right ascension02h 14m 55s
Apparent Declination-43° 13' 28"
Sunlit
Object is in full shadow
Visualization observer readout
Local Sidereal Time09:34:03
Azimuth241.842° WSW
Elevation-38.95°
Doppler factor1
Orbital elements
Apogee altitude376.39 km
Perigee altitude366.168 km
Semi-major axis6,749.416 km
Eccentricity0.0007573
Inclination97.3902°
RAAN76.4989°
Arg. of periapsis304.0874°
True anomaly56.03855°
Mean anomaly55.9666°
Eccentric anomaly56.00257°
Mean motion3.91421 °/min
BSTAR0.0016986
Orbital period91.97 mins
Loading maneuver chart data...
Loading historical data...
Loading historical data...
Loading historical data...
Loading historical data...
Loading historical data...
Loading historical data...
Loading historical data...
Other satellites on launch #52 in the year 2019 (2019-08-17 UTC)

OBJECT B Visibility forecast

Observer location: undefined°, undefined

Span
Click to sort rows by Start time (UTC) header in descending order
Start Az.
Max El. time (UTC)
Max El. Az.
Max El.
End time (UTC)
End Az.
4 mins2024-12-26 18:30:54.987Z346.945° N2024-12-26 18:32:54.987Z280.54° WNW30.754°2024-12-26 18:34:54.987Z222.543° SW
|